HYLAS 2

Last updated on Fri Dec 19 2025 00:02:50 GMT+0000 (Coordinated Universal Time)

1 38741U 12043B 25352.51271517 -.00000234 00000+0 00000+0 0 9997 2 38741 1.9605 83.3317 0003660 198.1091 278.0024 1.00273779 48961
UTC large
Height (km)
Speed (km/s)
/
Latitude / Longitude
Inclination (degrees)
Orbital Period (minutes)
Azimuth
Elevation
Range (km)
Doppler Factor

Next 0 passes for location: London (51.5072 / 0.1276)

Sorry there are no passes over London.